User: anonymous   Login
Location: Unspecified
(0.0000°N, 0.0000°E)
Time: 13:53:19
(UTC+02:00)
Language:

Ariane H10 - Orbit

View from above orbital plane
View from above orbital plane
View from above satellite
View from above satellite

Ground track
Ground track

The orbit data is extracted from the following two-line orbital elements,

1 19622U 88098B   15141.46692672  .00008683  00000-0  16196-2 0  9997
2 19622 003.9900 317.7887 6462460 311.4672 011.4511 03.37693172278355
Epoch (UTC): 21 May 2015 11:12:22
Eccentricity: 0.6462460
inclination: 3.9900°
perigee height: 260 km
apogee height: 24516 km
right ascension of ascending node: 317.7887°
argument of perigee: 311.4672°
revolutions per day: 3.37693172
mean anomaly at epoch: 11.4511°
orbit number at epoch: 27835

The dashed part of the orbit path shows where the satellite is in the earth's shadow,  

DLR